Starlink 11302

operational
NORAD ID: 61204 Int'l Des: 2024-171 Owner: SPXS Country: US Constellation: starlink
LEOCIRCULAR

关于 Starlink 11302

正在加载描述...

实时位置

正在加载3D地球...

即将过境

高度历史

Altitude vs Time

uPlot chart will show altitude changes over time

两行轨道根数

1 61204U 24171E 25258.43611168 .00002126 00000-0 22410-4 0 9994
2 61204 53.1589 320.1659 0001362 67.2305 292.8856 15.69706359 56874
Epoch: Sep 15, 2025 • Age: 15 hours

当前状态

高度 363.4 km
速度 7.69 km/s
星下点 -11.72°S, 135.16°E
发射日期 Sep 20, 2024
运行时间 0.9 years
类型 internet

技术详情

分类 Payload
质量 960.00 kg
干质量 910.00 kg
总质量 960.00 kg
长度 0.30 m
直径 4.10 m
跨度 29.00 m
形状 Box + pan
制造商 SPXS
平台类型 Starlink V2MD
阶段状态 In Orbit
所有者/国家 SPXS/US

大型星座

Loading constellations...